Time,TemperatureF,DewpointF,PressureIn,WindDirection,WindDirectionDegrees,WindSpeedMPH,WindSpeedGustMPH,Humidity,HourlyPrecipIn,Conditions,Clouds,dailyrainin,SoftwareType,DateUTC
2013-06-02 00:01:00,68.7,61.2,29.88,South,180,0.0,0.0,77,0.00,CLR,,0.00,WeatherDisplay:10.37,2013-06-02 04:01:00,
2013-06-02 00:02:00,68.7,61.2,29.88,South,180,0.0,0.0,77,0.00,CLR,,0.00,WeatherDisplay:10.37,2013-06-02 04:02:00,
2013-06-02 00:07:00,68.7,61.2,29.88,South,180,0.0,0.0,77,0.00,CLR,,0.00,WeatherDisplay:10.37,2013-06-02 04:07:00,
2013-06-02 00:12:00,68.7,61.2,29.88,South,180,0.0,0.0,77,0.00,CLR,,0.00,WeatherDisplay:10.37,2013-06-02 04:12:00,
2013-06-02 00:17:00,68.5,61.4,29.88,South,180,0.0,0.0,78,0.00,CLR,,0.00,WeatherDisplay:10.37,2013-06-02 04:17:00,
2013-06-02 00:22:00,68.5,61.0,29.88,South,180,0.0,0.0,77,0.00,CLR,,0.00,WeatherDisplay:10.37,2013-06-02 04:22:00,
2013-06-02 00:27:00,68.5,61.4,29.87,South,180,0.0,0.0,78,0.00,CLR,,0.00,WeatherDisplay:10.37,2013-06-02 04:27:00,
2013-06-02 00:32:00,68.5,61.4,29.86,South,180,0.0,0.0,78,0.00,CLR,,0.00,WeatherDisplay:10.37,2013-06-02 04:32:00,
2013-06-02 00:37:00,68.7,61.2,29.85,South,180,0.0,0.0,77,0.00,CLR,,0.00,WeatherDisplay:10.37,2013-06-02 04:37:00,
2013-06-02 00:42:00,68.5,61.4,29.85,WNW,292,0.0,0.0,78,0.00,CLR,,0.00,WeatherDisplay:10.37,2013-06-02 04:42:00,
2013-06-02 00:47:00,68.4,61.6,29.85,WNW,292,0.0,0.0,79,0.00,CLR,,0.00,WeatherDisplay:10.37,2013-06-02 04:47:00,
2013-06-02 00:52:00,68.2,61.4,29.84,WNW,292,0.0,0.0,79,0.00,CLR,,0.00,WeatherDisplay:10.37,2013-06-02 04:52:00,
2013-06-02 00:57:00,68.0,61.2,29.84,WSW,248,0.0,0.0,79,0.00,CLR,,0.00,WeatherDisplay:10.37,2013-06-02 04:57:00,
2013-06-02 01:02:00,67.8,61.1,29.84,WSW,248,0.0,0.0,79,0.00,CLR,,0.00,WeatherDisplay:10.37,2013-06-02 05:02:00,
2013-06-02 01:07:00,67.8,61.1,29.84,WSW,248,0.0,0.0,79,0.00,CLR,,0.00,WeatherDisplay:10.37,2013-06-02 05:07:00,
2013-06-02 01:12:00,67.8,61.1,29.84,WSW,248,0.0,0.0,79,0.00,CLR,,0.00,WeatherDisplay:10.37,2013-06-02 05:12:00,
2013-06-02 01:17:00,67.8,61.1,29.83,West,270,0.0,0.0,79,0.00,CLR,,0.00,WeatherDisplay:10.37,2013-06-02 05:17:00,
2013-06-02 01:22:00,67.8,61.1,29.82,WSW,248,0.0,0.0,79,0.00,CLR,,0.00,WeatherDisplay:10.37,2013-06-02 05:22:00,
2013-06-02 01:27:00,67.8,61.4,29.82,WSW,248,0.0,0.0,80,0.00,CLR,,0.00,WeatherDisplay:10.37,2013-06-02 05:27:00,
2013-06-02 01:32:00,67.6,61.2,29.82,WSW,248,0.0,0.0,80,0.00,CLR,,0.00,WeatherDisplay:10.37,2013-06-02 05:32:00,
2013-06-02 01:37:00,67.5,61.4,29.83,WSW,248,0.0,0.0,81,0.00,CLR,,0.00,WeatherDisplay:10.37,2013-06-02 05:37:00,
2013-06-02 01:42:00,67.3,60.9,29.84,WSW,248,0.0,0.0,80,0.00,CLR,,0.00,WeatherDisplay:10.37,2013-06-02 05:42:00,
2013-06-02 01:47:00,67.1,61.1,29.83,NW,315,0.0,0.0,81,0.00,CLR,,0.00,WeatherDisplay:10.37,2013-06-02 05:47:00,
2013-06-02 01:52:00,67.1,61.1,29.84,WSW,248,0.5,2.3,81,0.00,CLR,,0.00,WeatherDisplay:10.37,2013-06-02 05:52:00,
2013-06-02 01:57:00,67.3,61.2,29.83,SW,225,0.0,0.0,81,0.00,CLR,,0.00,WeatherDisplay:10.37,2013-06-02 05:57:00,
2013-06-02 02:02:00,67.3,61.2,29.83,South,180,1.5,3.5,81,0.00,CLR,,0.00,WeatherDisplay:10.37,2013-06-02 06:02:00,
2013-06-02 02:07:00,67.3,61.2,29.83,South,180,0.0,0.0,81,0.00,CLR,,0.00,WeatherDisplay:10.37,2013-06-02 06:07:00,
2013-06-02 02:12:00,67.3,61.2,29.83,South,180,0.0,0.0,81,0.00,CLR,,0.00,WeatherDisplay:10.37,2013-06-02 06:12:00,
2013-06-02 02:17:00,67.3,61.2,29.83,South,180,0.0,0.0,81,0.00,CLR,,0.00,WeatherDisplay:10.37,2013-06-02 06:17:00,
2013-06-02 02:22:00,67.3,61.2,29.84,South,180,0.0,0.0,81,0.00,CLR,,0.00,WeatherDisplay:10.37,2013-06-02 06:22:00,
2013-06-02 02:27:00,67.3,61.6,29.84,South,180,0.0,0.0,82,0.00,CLR,,0.00,WeatherDisplay:10.37,2013-06-02 06:27:00,
2013-06-02 02:32:00,67.1,61.4,29.83,South,180,0.0,0.0,82,0.00,CLR,,0.00,WeatherDisplay:10.37,2013-06-02 06:32:00,
2013-06-02 02:37:00,67.1,61.4,29.83,South,180,0.0,0.0,82,0.00,CLR,,0.00,WeatherDisplay:10.37,2013-06-02 06:37:00,
2013-06-02 02:42:00,66.9,61.2,29.84,South,180,0.0,0.0,82,0.00,CLR,,0.00,WeatherDisplay:10.37,2013-06-02 06:42:00,
2013-06-02 02:47:00,66.9,61.2,29.84,South,180,0.0,0.0,82,0.00,CLR,,0.00,WeatherDisplay:10.37,2013-06-02 06:47:00,
2013-06-02 02:52:00,66.9,61.2,29.84,SSW,202,0.0,2.3,82,0.00,CLR,,0.00,WeatherDisplay:10.37,2013-06-02 06:52:00,
2013-06-02 02:57:00,66.7,61.4,29.84,SSW,202,0.0,0.0,83,0.00,CLR,,0.00,WeatherDisplay:10.37,2013-06-02 06:57:00,
2013-06-02 03:02:00,66.7,61.4,29.84,SSW,202,0.0,0.0,83,0.00,CLR,,0.00,WeatherDisplay:10.37,2013-06-02 07:02:00,
2013-06-02 03:07:00,66.7,61.4,29.83,SSW,202,0.0,0.0,83,0.00,CLR,,0.00,WeatherDisplay:10.37,2013-06-02 07:07:00,
2013-06-02 03:12:00,66.7,61.4,29.83,SSW,202,0.0,0.0,83,0.00,CLR,,0.00,WeatherDisplay:10.37,2013-06-02 07:12:00,
2013-06-02 03:17:00,66.9,61.6,29.84,SSW,202,0.0,0.0,83,0.00,CLR,,0.00,WeatherDisplay:10.37,2013-06-02 07:17:00,
2013-06-02 03:22:00,66.9,61.6,29.84,SSW,202,0.0,0.0,83,0.00,CLR,,0.00,WeatherDisplay:10.37,2013-06-02 07:22:00,
2013-06-02 03:27:00,66.9,61.6,29.84,SSW,202,0.0,0.0,83,0.00,CLR,,0.00,WeatherDisplay:10.37,2013-06-02 07:27:00,
2013-06-02 03:32:00,66.7,61.7,29.83,South,180,0.6,1.1,84,0.00,CLR,,0.00,WeatherDisplay:10.37,2013-06-02 07:32:00,
2013-06-02 03:37:00,66.7,61.7,29.83,South,180,0.0,0.0,84,0.00,CLR,,0.00,WeatherDisplay:10.37,2013-06-02 07:37:00,
2013-06-02 03:42:00,66.7,61.7,29.83,WSW,248,0.4,3.5,84,0.00,CLR,,0.00,WeatherDisplay:10.37,2013-06-02 07:42:00,
2013-06-02 03:47:00,66.7,62.1,29.83,SSW,202,0.0,1.1,85,0.00,CLR,,0.00,WeatherDisplay:10.37,2013-06-02 07:47:00,
2013-06-02 03:52:00,66.6,61.9,29.83,South,180,0.2,3.5,85,0.00,CLR,,0.00,WeatherDisplay:10.37,2013-06-02 07:52:00,
2013-06-02 03:57:00,66.6,61.9,29.83,SSE,158,0.0,0.0,85,0.00,CLR,,0.00,WeatherDisplay:10.37,2013-06-02 07:57:00,
2013-06-02 04:02:00,66.4,61.7,29.82,SSE,158,0.2,0.0,85,0.00,CLR,,0.00,WeatherDisplay:10.37,2013-06-02 08:02:00,
2013-06-02 04:07:00,66.4,62.1,29.82,SSE,158,0.0,0.0,86,0.00,CLR,,0.00,WeatherDisplay:10.37,2013-06-02 08:07:00,
2013-06-02 04:12:00,66.4,62.1,29.82,NE,45,0.3,0.0,86,0.00,CLR,,0.00,WeatherDisplay:10.37,2013-06-02 08:12:00,
2013-06-02 04:17:00,66.4,62.1,29.82,SW,225,1.5,2.3,86,0.00,CLR,,0.00,WeatherDisplay:10.37,2013-06-02 08:17:00,
2013-06-02 04:22:00,66.4,62.1,29.82,SW,225,1.0,5.8,86,0.00,CLR,,0.00,WeatherDisplay:10.37,2013-06-02 08:22:00,
2013-06-02 04:27:00,66.2,61.9,29.82,SSW,202,1.7,4.6,86,0.00,CLR,,0.00,WeatherDisplay:10.37,2013-06-02 08:27:00,
2013-06-02 04:32:00,66.2,61.9,29.82,South,180,4.8,6.9,86,0.00,CLR,,0.00,WeatherDisplay:10.37,2013-06-02 08:32:00,
2013-06-02 04:37:00,66.0,61.7,29.82,SE,135,2.5,3.5,86,0.00,CLR,,0.00,WeatherDisplay:10.37,2013-06-02 08:37:00,
2013-06-02 04:42:00,66.0,61.4,29.82,SSW,202,0.1,2.3,85,0.00,CLR,,0.00,WeatherDisplay:10.37,2013-06-02 08:42:00,
2013-06-02 04:47:00,66.0,61.4,29.82,WSW,248,3.7,3.7,85,0.00,CLR,,0.00,WeatherDisplay:10.37,2013-06-02 08:47:00,
2013-06-02 04:52:00,66.0,61.4,29.82,SW,225,3.0,3.6,85,0.00,CLR,,0.00,WeatherDisplay:10.37,2013-06-02 08:52:00,
2013-06-02 04:57:00,65.8,61.5,29.82,WSW,248,1.8,5.8,86,0.00,CLR,,0.00,WeatherDisplay:10.37,2013-06-02 08:57:00,
2013-06-02 05:02:00,65.7,61.0,29.82,South,180,1.2,5.8,85,0.00,CLR,,0.00,WeatherDisplay:10.37,2013-06-02 09:02:00,
2013-06-02 05:07:00,65.5,61.2,29.82,SSW,202,0.0,0.0,86,0.02,RA,,0.02,WeatherDisplay:10.37,2013-06-02 09:07:00,
2013-06-02 05:12:00,65.1,60.8,29.82,WSW,248,0.9,6.9,86,0.04,RA,,0.04,WeatherDisplay:10.37,2013-06-02 09:12:00,
2013-06-02 05:17:00,64.9,61.0,29.82,North,0,2.1,5.8,87,0.07,RA,,0.07,WeatherDisplay:10.37,2013-06-02 09:17:00,
2013-06-02 05:22:00,64.8,60.8,29.82,SW,225,0.0,9.2,87,0.07,RA,,0.07,WeatherDisplay:10.37,2013-06-02 09:22:00,
2013-06-02 05:27:00,64.6,60.6,29.81,SSW,202,5.3,6.0,87,0.07,CLR,,0.07,WeatherDisplay:10.37,2013-06-02 09:27:00,
2013-06-02 05:32:00,64.2,60.6,29.82,WSW,248,0.0,0.0,88,0.07,CLR,,0.07,WeatherDisplay:10.37,2013-06-02 09:32:00,
2013-06-02 05:37:00,64.2,60.6,29.81,SW,225,0.0,0.0,88,0.07,CLR,,0.07,WeatherDisplay:10.37,2013-06-02 09:37:00,
2013-06-02 05:42:00,64.2,60.6,29.81,SSE,158,0.0,0.0,88,0.07,CLR,,0.07,WeatherDisplay:10.37,2013-06-02 09:42:00,
2013-06-02 05:47:00,64.0,60.4,29.82,SSW,202,0.0,0.0,88,0.07,CLR,,0.07,WeatherDisplay:10.37,2013-06-02 09:47:00,
2013-06-02 05:52:00,64.0,60.7,29.82,South,180,0.2,4.6,89,0.09,RA,,0.09,WeatherDisplay:10.37,2013-06-02 09:52:00,
2013-06-02 05:57:00,64.0,60.7,29.82,SSE,158,0.0,0.0,89,0.11,RA,,0.11,WeatherDisplay:10.37,2013-06-02 09:57:00,
2013-06-02 06:02:00,64.0,60.7,29.82,SSE,158,0.0,0.0,89,0.11,RA,,0.11,WeatherDisplay:10.37,2013-06-02 10:02:00,
2013-06-02 06:07:00,64.0,60.7,29.82,SE,135,0.0,3.5,89,0.09,CLR,,0.11,WeatherDisplay:10.37,2013-06-02 10:07:00,
2013-06-02 06:12:00,64.0,60.7,29.82,SW,225,0.0,0.0,89,0.09,RA,,0.13,WeatherDisplay:10.37,2013-06-02 10:12:00,
2013-06-02 06:17:00,64.0,60.7,29.82,SW,225,0.0,0.0,89,0.11,RA,,0.18,WeatherDisplay:10.37,2013-06-02 10:17:00,
2013-06-02 06:22:00,64.0,60.7,29.82,SSW,202,0.0,0.0,89,0.11,RA,,0.18,WeatherDisplay:10.37,2013-06-02 10:22:00,
2013-06-02 06:27:00,63.9,60.6,29.82,WSW,248,0.0,0.0,89,0.11,CLR,,0.18,WeatherDisplay:10.37,2013-06-02 10:27:00,
2013-06-02 06:32:00,63.7,60.7,29.82,WNW,292,0.0,0.0,90,0.11,CLR,,0.18,WeatherDisplay:10.37,2013-06-02 10:32:00,
2013-06-02 06:37:00,63.7,60.7,29.82,South,180,0.0,0.0,90,0.11,CLR,,0.18,WeatherDisplay:10.37,2013-06-02 10:37:00,
2013-06-02 06:42:00,64.0,61.0,29.82,SW,225,0.0,0.0,90,0.11,CLR,,0.18,WeatherDisplay:10.37,2013-06-02 10:42:00,
2013-06-02 06:47:00,64.0,61.0,29.82,SE,135,0.0,2.3,90,0.11,CLR,,0.18,WeatherDisplay:10.37,2013-06-02 10:47:00,
2013-06-02 06:52:00,64.0,61.0,29.82,SSE,158,0.1,4.6,90,0.09,CLR,,0.18,WeatherDisplay:10.37,2013-06-02 10:52:00,
2013-06-02 06:57:00,64.0,61.0,29.82,SSW,202,0.0,0.0,90,0.09,RA,,0.20,WeatherDisplay:10.37,2013-06-02 10:57:00,
2013-06-02 07:02:00,64.0,61.0,29.82,SSW,202,0.0,0.0,90,0.09,RA,,0.20,WeatherDisplay:10.37,2013-06-02 11:02:00,
2013-06-02 07:07:00,64.0,61.0,29.82,South,180,0.5,4.6,90,0.09,CLR,,0.20,WeatherDisplay:10.37,2013-06-02 11:07:00,
2013-06-02 07:12:00,64.0,61.0,29.82,South,180,0.2,4.7,90,0.09,RA,,0.22,WeatherDisplay:10.37,2013-06-02 11:12:00,
2013-06-02 07:17:00,64.0,61.0,29.82,SSE,158,0.0,0.0,90,0.07,RA,,0.25,WeatherDisplay:10.37,2013-06-02 11:17:00,
2013-06-02 07:22:00,64.0,61.4,29.82,West,270,0.0,0.0,91,0.09,RA,,0.27,WeatherDisplay:10.37,2013-06-02 11:22:00,
2013-06-02 07:27:00,64.0,61.4,29.82,SSE,158,0.0,0.0,91,0.09,RA,,0.27,WeatherDisplay:10.37,2013-06-02 11:27:00,
2013-06-02 07:32:00,64.0,61.4,29.83,South,180,0.0,0.0,91,0.11,RA,,0.29,WeatherDisplay:10.37,2013-06-02 11:32:00,
2013-06-02 07:37:00,64.0,61.4,29.83,SW,225,0.0,0.0,91,0.14,RA,,0.31,WeatherDisplay:10.37,2013-06-02 11:37:00,
2013-06-02 07:42:00,64.0,61.4,29.83,SSW,202,0.0,0.0,91,0.14,RA,,0.31,WeatherDisplay:10.37,2013-06-02 11:42:00,
2013-06-02 07:47:00,64.0,61.4,29.83,SW,225,0.9,0.0,91,0.14,CLR,,0.34,WeatherDisplay:10.37,2013-06-02 11:47:00,
2013-06-02 07:52:00,64.0,61.4,29.82,SSE,158,0.0,0.0,91,0.16,RA,,0.34,WeatherDisplay:10.37,2013-06-02 11:52:00,
2013-06-02 07:58:00,63.9,61.2,29.83,South,180,0.0,0.0,91,0.16,RA,,0.36,WeatherDisplay:10.37,2013-06-02 11:58:00,
2013-06-02 08:03:00,64.0,61.4,29.83,South,180,0.5,2.3,91,0.16,RA,,0.36,WeatherDisplay:10.37,2013-06-02 12:03:00,
2013-06-02 08:08:00,63.9,61.2,29.82,SSE,158,0.0,0.0,91,0.20,RA,,0.40,WeatherDisplay:10.37,2013-06-02 12:08:00,
2013-06-02 08:13:00,63.7,61.0,29.82,SSE,158,0.0,0.0,91,0.20,RA,,0.43,WeatherDisplay:10.37,2013-06-02 12:13:00,
2013-06-02 08:18:00,63.9,61.2,29.82,SSW,202,0.0,0.0,91,0.20,RA,,0.45,WeatherDisplay:10.37,2013-06-02 12:18:00,
2013-06-02 08:23:00,64.0,61.4,29.82,South,180,0.0,0.0,91,0.20,RA,,0.49,WeatherDisplay:10.37,2013-06-02 12:23:00,
2013-06-02 08:28:00,64.0,61.4,29.82,SW,225,0.0,0.0,91,0.22,RA,,0.49,WeatherDisplay:10.37,2013-06-02 12:28:00,
2013-06-02 08:33:00,64.0,61.4,29.82,South,180,0.0,0.0,91,0.20,RA,,0.49,WeatherDisplay:10.37,2013-06-02 12:33:00,
2013-06-02 08:38:00,64.0,61.4,29.82,SW,225,0.0,0.0,91,0.18,CLR,,0.49,WeatherDisplay:10.37,2013-06-02 12:38:00,
2013-06-02 08:43:00,64.0,61.4,29.81,SSW,202,0.0,0.0,91,0.20,RA,,0.52,WeatherDisplay:10.37,2013-06-02 12:43:00,
2013-06-02 08:48:00,63.9,61.2,29.81,SSW,202,0.9,0.0,91,0.20,RA,,0.52,WeatherDisplay:10.37,2013-06-02 12:48:00,
2013-06-02 08:53:00,64.0,61.4,29.81,SSW,202,0.0,0.0,91,0.20,RA,,0.54,WeatherDisplay:10.37,2013-06-02 12:53:00,
2013-06-02 08:58:00,64.0,61.4,29.81,SSW,202,0.0,0.0,91,0.18,RA,,0.54,WeatherDisplay:10.37,2013-06-02 12:58:00,
2013-06-02 09:03:00,64.0,61.4,29.81,South,180,0.0,0.0,91,0.18,CLR,,0.54,WeatherDisplay:10.37,2013-06-02 13:03:00,
2013-06-02 09:08:00,64.2,61.5,29.81,SSW,202,0.0,0.0,91,0.13,,,0.54,WeatherDisplay:10.37,2013-06-02 13:08:00,
2013-06-02 09:13:00,64.2,61.5,29.80,SSW,202,0.0,0.0,91,0.11,,,0.54,WeatherDisplay:10.37,2013-06-02 13:13:00,
2013-06-02 09:18:00,64.2,61.5,29.80,ESE,112,0.0,0.0,91,0.09,,,0.54,WeatherDisplay:10.37,2013-06-02 13:18:00,
2013-06-02 09:23:00,64.2,61.5,29.80,South,180,0.0,0.0,91,0.04,,,0.54,WeatherDisplay:10.37,2013-06-02 13:23:00,
2013-06-02 09:28:00,64.6,61.9,29.81,South,180,0.0,0.0,91,0.04,,,0.54,WeatherDisplay:10.37,2013-06-02 13:28:00,
2013-06-02 09:33:00,64.6,61.9,29.81,South,180,0.0,0.0,91,0.04,,,0.54,WeatherDisplay:10.37,2013-06-02 13:33:00,
2013-06-02 09:38:00,64.6,61.9,29.80,South,180,0.0,0.0,91,0.04,,,0.54,WeatherDisplay:10.37,2013-06-02 13:38:00,
2013-06-02 09:43:00,64.8,62.1,29.80,South,180,0.0,0.0,91,0.02,,,0.54,WeatherDisplay:10.37,2013-06-02 13:43:00,
2013-06-02 09:48:00,64.8,62.1,29.80,South,180,0.0,0.0,91,0.04,RA,,0.56,WeatherDisplay:10.37,2013-06-02 13:48:00,
2013-06-02 09:53:00,64.8,62.1,29.80,South,180,0.0,0.0,91,0.02,RA,,0.56,WeatherDisplay:10.37,2013-06-02 13:53:00,
2013-06-02 09:58:00,64.9,62.2,29.80,South,180,0.0,0.0,91,0.02,,,0.56,WeatherDisplay:10.37,2013-06-02 13:58:00,
2013-06-02 10:03:00,64.9,62.2,29.80,South,180,0.0,0.0,91,0.02,,,0.56,WeatherDisplay:10.37,2013-06-02 14:03:00,
2013-06-02 10:08:00,64.9,62.2,29.80,SSE,158,0.0,0.0,91,0.02,,,0.56,WeatherDisplay:10.37,2013-06-02 14:08:00,
2013-06-02 10:13:00,65.1,62.4,29.81,South,180,0.1,0.0,91,0.02,,,0.56,WeatherDisplay:10.37,2013-06-02 14:13:00,
2013-06-02 10:18:00,65.1,62.4,29.80,SSE,158,0.0,0.0,91,0.02,,,0.56,WeatherDisplay:10.37,2013-06-02 14:18:00,
2013-06-02 10:23:00,65.1,62.4,29.81,SSW,202,0.0,0.0,91,0.02,,,0.56,WeatherDisplay:10.37,2013-06-02 14:23:00,
2013-06-02 10:28:00,65.1,62.4,29.81,SSE,158,0.0,0.0,91,0.02,,,0.56,WeatherDisplay:10.37,2013-06-02 14:28:00,
2013-06-02 10:33:00,65.3,62.6,29.81,South,180,0.0,0.0,91,0.02,,,0.56,WeatherDisplay:10.37,2013-06-02 14:33:00,
2013-06-02 10:38:00,65.3,62.6,29.81,South,180,0.0,0.0,91,0.02,,,0.56,WeatherDisplay:10.37,2013-06-02 14:38:00,
2013-06-02 10:43:00,65.5,62.8,29.81,SSW,202,0.0,0.0,91,0.02,,,0.56,WeatherDisplay:10.37,2013-06-02 14:43:00,
2013-06-02 10:48:00,65.5,62.8,29.81,SE,135,0.0,0.0,91,0.00,,,0.56,WeatherDisplay:10.37,2013-06-02 14:48:00,
2013-06-02 10:53:00,65.7,63.0,29.81,SSE,158,0.0,0.0,91,0.00,,,0.56,WeatherDisplay:10.37,2013-06-02 14:53:00,
2013-06-02 10:58:00,65.8,63.1,29.81,SSE,158,0.0,0.0,91,0.00,,,0.56,WeatherDisplay:10.37,2013-06-02 14:58:00,
2013-06-02 11:03:00,65.8,63.1,29.81,SSE,158,0.0,0.0,91,0.00,,,0.56,WeatherDisplay:10.37,2013-06-02 15:03:00,
2013-06-02 11:08:00,66.0,63.3,29.81,South,180,0.0,0.0,91,0.00,,,0.56,WeatherDisplay:10.37,2013-06-02 15:08:00,
2013-06-02 11:13:00,66.0,63.3,29.81,South,180,0.0,0.0,91,0.00,,,0.56,WeatherDisplay:10.37,2013-06-02 15:13:00,
2013-06-02 11:18:00,66.0,63.3,29.82,SSE,158,0.0,0.0,91,0.00,,,0.56,WeatherDisplay:10.37,2013-06-02 15:18:00,
2013-06-02 11:23:00,66.0,63.3,29.82,SSE,158,0.0,0.0,91,0.00,,,0.56,WeatherDisplay:10.37,2013-06-02 15:23:00,
2013-06-02 11:28:00,66.0,63.3,29.81,South,180,0.0,0.0,91,0.00,,,0.56,WeatherDisplay:10.37,2013-06-02 15:28:00,
2013-06-02 11:33:00,66.0,63.3,29.81,South,180,0.0,0.0,91,0.00,,,0.58,WeatherDisplay:10.37,2013-06-02 15:33:00,
2013-06-02 11:38:00,66.2,63.5,29.81,SSW,202,0.0,0.0,91,0.02,RA,,0.58,WeatherDisplay:10.37,2013-06-02 15:38:00,
2013-06-02 11:43:00,66.0,63.3,29.81,SSE,158,0.0,0.0,91,0.02,RA,,0.58,WeatherDisplay:10.37,2013-06-02 15:43:00,
2013-06-02 11:48:00,66.0,63.3,29.81,SSW,202,0.0,0.0,91,0.04,RA,,0.61,WeatherDisplay:10.37,2013-06-02 15:48:00,
2013-06-02 11:53:00,66.0,63.3,29.81,SSE,158,0.5,3.5,91,0.04,RA,,0.61,WeatherDisplay:10.37,2013-06-02 15:53:00,
2013-06-02 11:58:00,66.0,63.3,29.81,SSW,202,0.0,0.0,91,0.04,,,0.61,WeatherDisplay:10.37,2013-06-02 15:58:00,
2013-06-02 12:03:00,66.4,63.7,29.81,SSE,158,0.0,0.0,91,0.04,,,0.61,WeatherDisplay:10.37,2013-06-02 16:03:00,
2013-06-02 12:08:00,66.6,63.9,29.81,SSE,158,0.0,0.0,91,0.04,,,0.61,WeatherDisplay:10.37,2013-06-02 16:08:00,
2013-06-02 12:13:00,66.7,64.0,29.82,South,180,0.0,0.0,91,0.04,,,0.61,WeatherDisplay:10.37,2013-06-02 16:13:00,
2013-06-02 12:18:00,66.7,64.0,29.81,SW,225,0.0,0.0,91,0.04,,,0.61,WeatherDisplay:10.37,2013-06-02 16:18:00,
2013-06-02 12:23:00,66.9,64.2,29.81,SSW,202,0.0,0.0,91,0.04,,,0.61,WeatherDisplay:10.37,2013-06-02 16:23:00,
2013-06-02 12:28:00,67.3,64.6,29.80,SSW,202,0.0,0.0,91,0.04,,,0.61,WeatherDisplay:10.37,2013-06-02 16:28:00,
2013-06-02 12:33:00,67.6,64.9,29.80,WSW,248,0.0,0.0,91,0.04,,,0.61,WeatherDisplay:10.37,2013-06-02 16:33:00,
2013-06-02 12:38:00,67.8,65.1,29.80,South,180,1.1,2.3,91,0.02,,,0.61,WeatherDisplay:10.37,2013-06-02 16:38:00,
2013-06-02 12:43:00,68.2,65.5,29.81,East,90,0.0,0.0,91,0.02,,,0.61,WeatherDisplay:10.37,2013-06-02 16:43:00,
2013-06-02 12:48:00,68.4,65.6,29.80,SSE,158,0.0,0.0,91,0.00,,,0.61,WeatherDisplay:10.37,2013-06-02 16:48:00,
2013-06-02 12:53:00,68.7,65.7,29.80,SSE,158,0.0,0.0,90,0.00,,,0.61,WeatherDisplay:10.37,2013-06-02 16:53:00,
2013-06-02 12:58:00,68.9,65.8,29.80,South,180,0.0,0.0,90,0.00,,,0.61,WeatherDisplay:10.37,2013-06-02 16:58:00,
2013-06-02 13:03:00,69.3,66.2,29.80,SSE,158,0.0,0.0,90,0.00,,,0.61,WeatherDisplay:10.37,2013-06-02 17:03:00,
2013-06-02 13:08:00,69.6,66.2,29.81,SSE,158,0.0,0.0,89,0.00,,,0.61,WeatherDisplay:10.37,2013-06-02 17:08:00,
2013-06-02 13:13:00,70.0,66.9,29.80,SSE,158,0.0,0.0,90,0.00,,,0.61,WeatherDisplay:10.37,2013-06-02 17:13:00,
2013-06-02 13:18:00,70.2,67.1,29.81,SSE,158,0.0,0.0,90,0.00,,,0.61,WeatherDisplay:10.37,2013-06-02 17:18:00,
2013-06-02 13:23:00,70.5,67.1,29.80,South,180,0.0,0.0,89,0.00,,,0.61,WeatherDisplay:10.37,2013-06-02 17:23:00,
2013-06-02 13:28:00,70.9,67.5,29.80,SSE,158,0.0,0.0,89,0.00,,,0.61,WeatherDisplay:10.37,2013-06-02 17:28:00,
2013-06-02 13:33:00,71.4,67.7,29.80,SE,135,0.0,0.0,88,0.00,,,0.61,WeatherDisplay:10.37,2013-06-02 17:33:00,
2013-06-02 13:38:00,71.4,67.3,29.80,South,180,0.0,0.0,87,0.00,,,0.61,WeatherDisplay:10.37,2013-06-02 17:38:00,
2013-06-02 13:43:00,71.4,67.0,29.80,South,180,0.0,0.0,86,0.00,,,0.61,WeatherDisplay:10.37,2013-06-02 17:43:00,
2013-06-02 13:48:00,71.4,67.0,29.80,South,180,0.0,0.0,86,0.00,,,0.61,WeatherDisplay:10.37,2013-06-02 17:48:00,
2013-06-02 13:53:00,71.8,67.7,29.79,South,180,0.0,0.0,87,0.00,,,0.61,WeatherDisplay:10.37,2013-06-02 17:53:00,
2013-06-02 13:58:00,72.1,68.1,29.79,South,180,0.0,0.0,87,0.00,,,0.61,WeatherDisplay:10.37,2013-06-02 17:58:00,
2013-06-02 14:03:00,72.7,68.2,29.79,SSE,158,0.0,0.0,86,0.00,,,0.61,WeatherDisplay:10.37,2013-06-02 18:03:00,
2013-06-02 14:08:00,73.0,68.6,29.78,SSE,158,0.0,0.0,86,0.00,,,0.61,WeatherDisplay:10.37,2013-06-02 18:08:00,
2013-06-02 14:13:00,73.6,68.8,29.77,SSE,158,0.0,0.0,85,0.00,,,0.61,WeatherDisplay:10.37,2013-06-02 18:13:00,
2013-06-02 14:18:00,73.6,68.8,29.77,SSE,158,0.0,0.0,85,0.00,,,0.61,WeatherDisplay:10.37,2013-06-02 18:18:00,
2013-06-02 14:23:00,73.6,68.8,29.78,SSW,202,0.0,0.0,85,0.00,,,0.61,WeatherDisplay:10.37,2013-06-02 18:23:00,
2013-06-02 14:28:00,73.2,68.1,29.78,SSW,202,0.0,0.0,84,0.00,,,0.61,WeatherDisplay:10.37,2013-06-02 18:28:00,
2013-06-02 14:33:00,73.0,68.3,29.77,SSW,202,0.0,0.0,85,0.00,,,0.61,WeatherDisplay:10.37,2013-06-02 18:33:00,
2013-06-02 14:38:00,72.7,67.9,29.77,SW,225,0.0,0.0,85,0.00,,,0.61,WeatherDisplay:10.37,2013-06-02 18:38:00,
2013-06-02 14:43:00,72.3,67.6,29.77,ESE,112,0.0,0.0,85,0.00,,,0.61,WeatherDisplay:10.37,2013-06-02 18:43:00,
2013-06-02 14:48:00,72.0,66.9,29.77,SE,135,0.0,0.0,84,0.00,,,0.61,WeatherDisplay:10.37,2013-06-02 18:48:00,
2013-06-02 14:53:00,71.4,66.0,29.77,North,0,0.0,0.0,83,0.00,,,0.61,WeatherDisplay:10.37,2013-06-02 18:53:00,
2013-06-02 14:58:00,70.9,65.5,29.77,SSE,158,0.0,0.0,83,0.00,,,0.61,WeatherDisplay:10.37,2013-06-02 18:58:00,
2013-06-02 15:03:00,70.3,65.3,29.76,SSE,158,0.0,0.0,84,0.00,,,0.61,WeatherDisplay:10.37,2013-06-02 19:03:00,
2013-06-02 15:08:00,70.2,65.4,29.76,SSE,158,0.0,0.0,85,0.00,,,0.61,WeatherDisplay:10.37,2013-06-02 19:08:00,
2013-06-02 15:13:00,69.8,64.7,29.76,NNE,22,0.0,0.0,84,0.00,,,0.61,WeatherDisplay:10.37,2013-06-02 19:13:00,
2013-06-02 15:18:00,69.4,64.0,29.77,NNE,22,0.0,0.0,83,0.00,,,0.61,WeatherDisplay:10.37,2013-06-02 19:18:00,
2013-06-02 15:23:00,69.1,63.7,29.77,ESE,112,0.0,0.0,83,0.00,,,0.61,WeatherDisplay:10.37,2013-06-02 19:23:00,
2013-06-02 15:28:00,68.7,63.7,29.77,ESE,112,0.0,0.0,84,0.00,,,0.61,WeatherDisplay:10.37,2013-06-02 19:28:00,
2013-06-02 15:33:00,68.5,63.5,29.77,SSE,158,0.0,0.0,84,0.00,,,0.61,WeatherDisplay:10.37,2013-06-02 19:33:00,
2013-06-02 15:38:00,68.2,63.2,29.76,South,180,0.0,0.0,84,0.00,,,0.61,WeatherDisplay:10.37,2013-06-02 19:38:00,
2013-06-02 15:43:00,68.2,63.2,29.76,South,180,0.0,0.0,84,0.00,,,0.61,WeatherDisplay:10.37,2013-06-02 19:43:00,
2013-06-02 15:48:00,68.4,63.7,29.75,South,180,0.0,0.0,85,0.00,,,0.61,WeatherDisplay:10.37,2013-06-02 19:48:00,
2013-06-02 15:53:00,68.4,63.7,29.76,South,180,0.0,0.0,85,0.00,,,0.61,WeatherDisplay:10.37,2013-06-02 19:53:00,
2013-06-02 15:58:00,68.5,63.8,29.76,SE,135,0.0,0.0,85,0.00,,,0.61,WeatherDisplay:10.37,2013-06-02 19:58:00,
2013-06-02 16:03:00,68.5,63.8,29.76,WNW,292,0.0,0.0,85,0.00,,,0.61,WeatherDisplay:10.37,2013-06-02 20:03:00,
2013-06-02 16:08:00,68.4,63.7,29.75,ESE,112,0.0,0.0,85,0.00,,,0.61,WeatherDisplay:10.37,2013-06-02 20:08:00,
2013-06-02 16:13:00,68.2,63.5,29.75,South,180,0.0,0.0,85,0.00,,,0.61,WeatherDisplay:10.37,2013-06-02 20:13:00,
2013-06-02 16:18:00,67.8,63.5,29.77,South,180,0.1,2.5,86,0.07,RA,,0.69,WeatherDisplay:10.37,2013-06-02 20:18:00,
2013-06-02 16:23:00,67.6,63.3,29.76,NE,45,0.0,0.0,86,0.16,RA,,0.79,WeatherDisplay:10.37,2013-06-02 20:23:00,
2013-06-02 16:28:00,67.1,62.8,29.76,NE,45,0.0,0.0,86,0.18,RA,,0.79,WeatherDisplay:10.37,2013-06-02 20:28:00,
2013-06-02 16:33:00,66.9,62.6,29.75,NE,45,0.0,0.0,86,0.18,RA,,0.79,WeatherDisplay:10.37,2013-06-02 20:33:00,
2013-06-02 16:38:00,66.9,62.6,29.76,NE,45,0.0,0.0,86,0.18,,,0.79,WeatherDisplay:10.37,2013-06-02 20:38:00,
2013-06-02 16:43:00,66.7,62.4,29.76,NE,45,0.0,0.0,86,0.20,RA,,0.81,WeatherDisplay:10.37,2013-06-02 20:43:00,
2013-06-02 16:48:00,66.7,62.7,29.75,NE,45,0.0,0.0,87,0.27,RA,,0.88,WeatherDisplay:10.37,2013-06-02 20:48:00,
2013-06-02 16:53:00,66.7,62.7,29.75,South,180,0.0,0.0,87,0.29,RA,,0.90,WeatherDisplay:10.37,2013-06-02 20:53:00,
2013-06-02 16:58:00,66.6,62.6,29.75,South,180,0.0,0.0,87,0.32,RA,,0.92,WeatherDisplay:10.37,2013-06-02 20:58:00,
2013-06-02 17:03:00,66.7,63.1,29.76,South,180,0.0,0.0,88,0.36,RA,,0.97,WeatherDisplay:10.37,2013-06-02 21:03:00,
2013-06-02 17:08:00,66.7,63.1,29.76,South,180,0.0,0.0,88,0.36,RA,,0.97,WeatherDisplay:10.37,2013-06-02 21:08:00,
2013-06-02 17:13:00,66.6,62.9,29.75,South,180,0.0,0.0,88,0.38,RA,,0.99,WeatherDisplay:10.37,2013-06-02 21:13:00,
2013-06-02 17:18:00,66.7,63.1,29.77,South,180,0.0,0.0,88,0.32,RA,,0.99,WeatherDisplay:10.37,2013-06-02 21:18:00,
2013-06-02 17:23:00,66.6,62.9,29.77,South,180,0.0,0.0,88,0.23,,,0.99,WeatherDisplay:10.37,2013-06-02 21:23:00,
2013-06-02 17:28:00,66.6,62.9,29.77,South,180,0.0,0.0,88,0.20,,,0.99,WeatherDisplay:10.37,2013-06-02 21:28:00,
2013-06-02 17:33:00,66.4,62.7,29.77,SW,225,0.0,0.0,88,0.23,RA,,1.01,WeatherDisplay:10.37,2013-06-02 21:33:00,
2013-06-02 17:38:00,66.0,62.0,29.76,SW,225,0.0,0.0,87,0.23,RA,,1.01,WeatherDisplay:10.37,2013-06-02 21:38:00,
2013-06-02 17:43:00,65.8,61.9,29.76,WSW,248,0.0,0.0,87,0.20,,,1.01,WeatherDisplay:10.37,2013-06-02 21:43:00,
2013-06-02 17:48:00,65.8,61.9,29.76,WSW,248,0.0,0.0,87,0.14,,,1.01,WeatherDisplay:10.37,2013-06-02 21:48:00,
2013-06-02 17:53:00,66.0,62.4,29.76,WSW,248,0.0,0.0,88,0.14,RA,,1.03,WeatherDisplay:10.37,2013-06-02 21:53:00,
2013-06-02 17:58:00,66.0,62.4,29.76,WSW,248,0.0,0.0,88,0.11,RA,,1.03,WeatherDisplay:10.37,2013-06-02 21:58:00,
2013-06-02 18:03:00,66.2,62.5,29.76,WSW,248,0.0,0.0,88,0.07,,,1.03,WeatherDisplay:10.37,2013-06-02 22:03:00,
2013-06-02 18:08:00,66.0,62.4,29.77,WSW,248,0.0,0.0,88,0.07,,,1.03,WeatherDisplay:10.37,2013-06-02 22:08:00,
2013-06-02 18:13:00,66.0,62.4,29.77,WSW,248,0.0,0.0,88,0.04,,,1.03,WeatherDisplay:10.37,2013-06-02 22:13:00,
2013-06-02 18:18:00,66.0,62.4,29.77,WSW,248,0.0,0.0,88,0.04,,,1.03,WeatherDisplay:10.37,2013-06-02 22:18:00,
2013-06-02 18:23:00,66.0,62.4,29.76,WSW,248,0.0,0.0,88,0.04,,,1.03,WeatherDisplay:10.37,2013-06-02 22:23:00,
2013-06-02 18:28:00,66.0,62.4,29.76,WSW,248,0.0,0.0,88,0.04,,,1.03,WeatherDisplay:10.37,2013-06-02 22:28:00,
2013-06-02 18:33:00,66.0,62.4,29.76,WSW,248,0.0,0.0,88,0.02,,,1.03,WeatherDisplay:10.37,2013-06-02 22:33:00,
2013-06-02 18:38:00,65.8,62.2,29.77,WSW,248,0.0,0.0,88,0.02,,,1.03,WeatherDisplay:10.37,2013-06-02 22:38:00,
2013-06-02 18:43:00,65.8,62.2,29.77,WSW,248,0.0,0.0,88,0.02,,,1.03,WeatherDisplay:10.37,2013-06-02 22:43:00,
2013-06-02 18:48:00,65.8,62.2,29.77,WSW,248,0.0,0.0,88,0.02,,,1.03,WeatherDisplay:10.37,2013-06-02 22:48:00,
2013-06-02 18:53:00,65.7,62.3,29.77,WSW,248,0.0,0.0,89,0.04,RA,,1.08,WeatherDisplay:10.37,2013-06-02 22:53:00,
2013-06-02 18:58:00,65.7,62.3,29.76,WSW,248,0.0,0.0,89,0.04,RA,,1.08,WeatherDisplay:10.37,2013-06-02 22:58:00,
2013-06-02 19:03:00,65.5,62.2,29.76,WSW,248,0.0,0.0,89,0.04,,,1.08,WeatherDisplay:10.37,2013-06-02 23:03:00,
2013-06-02 19:08:00,65.5,62.2,29.76,WSW,248,0.0,0.0,89,0.04,,,1.10,WeatherDisplay:10.37,2013-06-02 23:08:00,
2013-06-02 19:13:00,65.5,62.2,29.76,WSW,248,0.0,0.0,89,0.07,RA,,1.10,WeatherDisplay:10.37,2013-06-02 23:13:00,
2013-06-02 19:18:00,65.5,62.2,29.76,WSW,248,0.0,0.0,89,0.07,RA,,1.10,WeatherDisplay:10.37,2013-06-02 23:18:00,
2013-06-02 19:23:00,65.3,62.0,29.76,SSW,202,0.0,0.0,89,0.07,,,1.10,WeatherDisplay:10.37,2013-06-02 23:23:00,
2013-06-02 19:28:00,65.3,62.3,29.76,SSE,158,0.0,0.0,90,0.11,RA,,1.15,WeatherDisplay:10.37,2013-06-02 23:28:00,
2013-06-02 19:33:00,65.1,62.1,29.76,SSE,158,0.0,0.0,90,0.18,RA,,1.21,WeatherDisplay:10.37,2013-06-02 23:33:00,
2013-06-02 19:38:00,65.1,62.1,29.76,SSE,158,0.0,0.0,90,0.23,RA,,1.26,WeatherDisplay:10.37,2013-06-02 23:38:00,
2013-06-02 19:43:00,65.1,62.1,29.76,SSE,158,0.0,0.0,90,0.23,RA,,1.28,WeatherDisplay:10.37,2013-06-02 23:43:00,
2013-06-02 19:48:00,65.1,62.1,29.77,SSE,158,0.0,0.0,90,0.34,RA,,1.37,WeatherDisplay:10.37,2013-06-02 23:48:00,
2013-06-02 19:53:00,65.1,62.1,29.76,NE,45,0.0,0.0,90,0.45,RA,,1.53,WeatherDisplay:10.37,2013-06-02 23:53:00,
2013-06-02 19:58:00,64.9,61.9,29.76,NE,45,0.0,0.0,90,0.48,RA,,1.55,WeatherDisplay:10.37,2013-06-02 23:58:00,
2013-06-02 20:03:00,64.9,61.9,29.75,NE,45,0.0,0.0,90,0.50,RA,,1.58,WeatherDisplay:10.37,2013-06-03 00:03:00,
2013-06-02 20:08:00,64.8,61.8,29.76,NE,45,0.0,0.0,90,0.50,RA,,1.58,WeatherDisplay:10.37,2013-06-03 00:08:00,
2013-06-02 20:13:00,64.8,61.8,29.76,ENE,68,0.0,0.0,90,0.48,,,1.58,WeatherDisplay:10.37,2013-06-03 00:13:00,
2013-06-02 20:18:00,64.8,61.8,29.76,ENE,68,0.0,0.0,90,0.48,,,1.58,WeatherDisplay:10.37,2013-06-03 00:18:00,
2013-06-02 20:23:00,64.9,61.9,29.76,ENE,68,0.0,0.0,90,0.48,,,1.58,WeatherDisplay:10.37,2013-06-03 00:23:00,
2013-06-02 20:28:00,64.9,61.9,29.76,SE,135,0.0,0.0,90,0.43,,,1.58,WeatherDisplay:10.37,2013-06-03 00:28:00,
2013-06-02 20:33:00,64.9,61.9,29.76,SSE,158,0.0,0.0,90,0.36,,,1.58,WeatherDisplay:10.37,2013-06-03 00:33:00,
2013-06-02 20:38:00,64.8,61.8,29.75,SSE,158,0.0,0.0,90,0.32,,,1.58,WeatherDisplay:10.37,2013-06-03 00:38:00,
2013-06-02 20:43:00,64.8,61.8,29.75,SSE,158,0.0,0.0,90,0.32,,,1.58,WeatherDisplay:10.37,2013-06-03 00:43:00,
2013-06-02 20:48:00,64.8,61.8,29.76,SSE,158,0.0,0.0,90,0.20,,,1.58,WeatherDisplay:10.37,2013-06-03 00:48:00,
2013-06-02 20:53:00,64.8,61.8,29.75,SSE,158,0.0,0.0,90,0.05,,,1.58,WeatherDisplay:10.37,2013-06-03 00:53:00,
2013-06-02 20:58:00,64.8,61.8,29.76,SSE,158,0.0,0.0,90,0.02,,,1.58,WeatherDisplay:10.37,2013-06-03 00:58:00,
2013-06-02 21:03:00,64.8,61.8,29.76,SSE,158,0.0,0.0,90,0.00,,,1.58,WeatherDisplay:10.37,2013-06-03 01:03:00,
2013-06-02 21:08:00,64.8,61.8,29.76,SSE,158,0.0,0.0,90,0.00,,,1.58,WeatherDisplay:10.37,2013-06-03 01:08:00,
2013-06-02 21:13:00,64.8,61.8,29.75,SSE,158,0.0,0.0,90,0.00,,,1.58,WeatherDisplay:10.37,2013-06-03 01:13:00,
2013-06-02 21:18:00,64.8,61.8,29.75,SSE,158,0.0,0.0,90,0.00,,,1.58,WeatherDisplay:10.37,2013-06-03 01:18:00,
2013-06-02 21:23:00,64.9,61.9,29.76,SSE,158,0.0,0.0,90,0.00,,,1.58,WeatherDisplay:10.37,2013-06-03 01:23:00,
2013-06-02 21:28:00,64.9,61.9,29.75,SSE,158,0.0,0.0,90,0.00,,,1.58,WeatherDisplay:10.37,2013-06-03 01:28:00,
2013-06-02 21:33:00,64.8,61.8,29.75,SSE,158,0.0,0.0,90,0.00,,,1.58,WeatherDisplay:10.37,2013-06-03 01:33:00,
2013-06-02 21:38:00,64.8,62.1,29.75,SSE,158,0.0,0.0,91,0.00,,,1.58,WeatherDisplay:10.37,2013-06-03 01:38:00,
2013-06-02 21:43:00,64.8,62.1,29.75,SSE,158,0.0,0.0,91,0.00,,,1.58,WeatherDisplay:10.37,2013-06-03 01:43:00,
2013-06-02 21:48:00,64.8,62.1,29.75,SSE,158,0.0,0.0,91,0.00,,,1.58,WeatherDisplay:10.37,2013-06-03 01:48:00,
2013-06-02 21:53:00,64.6,61.9,29.75,SSE,158,0.0,0.0,91,0.00,,,1.58,WeatherDisplay:10.37,2013-06-03 01:53:00,
2013-06-02 21:58:00,64.6,61.6,29.75,SSE,158,0.0,0.0,90,0.00,,,1.58,WeatherDisplay:10.37,2013-06-03 01:58:00,
2013-06-02 22:03:00,64.4,61.7,29.75,SSE,158,0.0,0.0,91,0.00,,,1.58,WeatherDisplay:10.37,2013-06-03 02:03:00,
2013-06-02 22:08:00,64.2,61.5,29.75,SSE,158,0.0,0.0,91,0.00,,,1.58,WeatherDisplay:10.37,2013-06-03 02:08:00,
2013-06-02 22:13:00,64.2,61.5,29.74,SSE,158,0.0,0.0,91,0.00,,,1.58,WeatherDisplay:10.37,2013-06-03 02:13:00,
2013-06-02 22:18:00,64.2,61.5,29.74,SSE,158,0.0,0.0,91,0.00,,,1.58,WeatherDisplay:10.37,2013-06-03 02:18:00,
2013-06-02 22:23:00,64.2,61.5,29.75,SSE,158,0.0,0.0,91,0.00,,,1.58,WeatherDisplay:10.37,2013-06-03 02:23:00,
2013-06-02 22:28:00,64.2,61.5,29.75,SSE,158,0.0,0.0,91,0.00,,,1.58,WeatherDisplay:10.37,2013-06-03 02:28:00,
2013-06-02 22:33:00,64.2,61.5,29.75,SSE,158,0.0,0.0,91,0.00,,,1.58,WeatherDisplay:10.37,2013-06-03 02:33:00,
2013-06-02 22:38:00,64.2,61.5,29.75,SSE,158,0.0,0.0,91,0.00,,,1.58,WeatherDisplay:10.37,2013-06-03 02:38:00,
2013-06-02 22:43:00,64.2,61.5,29.75,SSE,158,0.0,0.0,91,0.00,,,1.58,WeatherDisplay:10.37,2013-06-03 02:43:00,
2013-06-02 22:48:00,64.0,61.4,29.75,SSE,158,0.0,0.0,91,0.00,,,1.58,WeatherDisplay:10.37,2013-06-03 02:48:00,
2013-06-02 22:53:00,64.0,61.4,29.75,SSE,158,0.0,0.0,91,0.00,,,1.58,WeatherDisplay:10.37,2013-06-03 02:53:00,
2013-06-02 22:58:00,63.9,61.2,29.75,SSE,158,0.0,0.0,91,0.00,,,1.58,WeatherDisplay:10.37,2013-06-03 02:58:00,
2013-06-02 23:03:00,63.7,61.0,29.75,SSE,158,0.0,0.0,91,0.00,,,1.58,WeatherDisplay:10.37,2013-06-03 03:03:00,
2013-06-02 23:08:00,63.7,61.0,29.75,SSE,158,0.0,0.0,91,0.00,,,1.58,WeatherDisplay:10.37,2013-06-03 03:08:00,
2013-06-02 23:13:00,63.7,61.0,29.75,SSE,158,0.0,0.0,91,0.00,,,1.58,WeatherDisplay:10.37,2013-06-03 03:13:00,
2013-06-02 23:18:00,63.7,61.0,29.75,SW,225,0.0,0.0,91,0.00,,,1.58,WeatherDisplay:10.37,2013-06-03 03:18:00,
2013-06-02 23:23:00,64.0,61.7,29.75,SW,225,0.0,0.0,92,0.00,,,1.58,WeatherDisplay:10.37,2013-06-03 03:23:00,
2013-06-02 23:28:00,64.0,61.7,29.75,SW,225,0.0,0.0,92,0.00,,,1.58,WeatherDisplay:10.37,2013-06-03 03:28:00,
2013-06-02 23:33:00,64.2,61.8,29.75,SSE,158,0.0,0.0,92,0.00,,,1.58,WeatherDisplay:10.37,2013-06-03 03:33:00,
2013-06-02 23:38:00,64.2,61.8,29.75,South,180,0.0,3.5,92,0.00,,,1.58,WeatherDisplay:10.37,2013-06-03 03:38:00,
2013-06-02 23:43:00,64.2,61.8,29.75,SSE,158,0.0,0.0,92,0.00,,,1.58,WeatherDisplay:10.37,2013-06-03 03:43:00,
2013-06-02 23:48:00,64.2,61.8,29.75,SSE,158,0.0,0.0,92,0.00,,,1.58,WeatherDisplay:10.37,2013-06-03 03:48:00,
2013-06-02 23:53:00,64.2,61.8,29.74,SSE,158,0.0,0.0,92,0.00,,,1.58,WeatherDisplay:10.37,2013-06-03 03:53:00,
2013-06-02 23:58:00,64.2,61.8,29.75,SSE,158,0.0,0.0,92,0.00,,,1.58,WeatherDisplay:10.37,2013-06-03 03:58:00,